This is the latest recevied weather packets stored in our database for station/object N4RCT. If no packets are shown the sender has not sent any weather packets the latest 1 day(s).
| Time | Temp. | Humidity | Pressure | Rain* | Wind** | Luminosity | Snow |
|---|---|---|---|---|---|---|---|
| 1778018084 | 23.89° C | 47% | 1011.5 hPa | 0 mm | 0 m/s | 69 W/m² | - |
| 1778017781 | 23.89° C | 50% | 1011.9 hPa | 0 mm | 0 m/s | 60 W/m² | - |
| 1778017479 | 23.89° C | 49% | 1011.5 hPa | 0 mm | 0 m/s | 76 W/m² | - |
| 1778017176 | 23.89° C | 48% | 1011.9 hPa | 0 mm | 0 m/s | 84 W/m² | - |
| 1778016873 | 23.89° C | 47% | 1011.9 hPa | 0 mm | 0 m/s | 88 W/m² | - |
| 1778016569 | 24.44° C | 46% | 1012 hPa | 0 mm | 0 m/s | 90 W/m² | - |
| 1778016267 | 24.44° C | 47% | 1011.7 hPa | 0 mm | 0.45 m/s, 178° | 125 W/m² | - |
| 1778015963 | 24.44° C | 48% | 1011.7 hPa | 0 mm | 0 m/s | 189 W/m² | - |
| 1778015660 | 25° C | 44% | 1011.4 hPa | 0 mm | 0 m/s | 166 W/m² | - |
| 1778015356 | 25° C | 47% | 1011.6 hPa | 0 mm | 0 m/s | 117 W/m² | - |
| 1778015063 | 25° C | 44% | 1011.8 hPa | 0 mm | 0.45 m/s, 155° | 168 W/m² | - |
| 1778014750 | 25° C | 46% | 1011.8 hPa | 0 mm | 0 m/s | 183 W/m² | - |
| 1778014449 | 25.56° C | 43% | 1011.6 hPa | 0 mm | 0.45 m/s, 194° | 170 W/m² | - |
| 1778014145 | 25.56° C | 41% | 1011.9 hPa | 0 mm | 0 m/s | 154 W/m² | - |
| 1778013843 | 25.56° C | 43% | 1012.1 hPa | 0 mm | 0 m/s | 110 W/m² | - |
| 1778013540 | 25.56° C | 42% | 1012 hPa | 0 mm | 0.45 m/s, 204° | 125 W/m² | - |
| 1778013236 | 25.56° C | 41% | 1012.1 hPa | 0 mm | 0.45 m/s, 226° | 269 W/m² | - |
| 1778012933 | 25° C | 42% | 1012.3 hPa | 0 mm | 0.45 m/s, 119° | 266 W/m² | - |
| 1778012629 | 25.56° C | 43% | 1012 hPa | 0 mm | 0.45 m/s, 202° | 223 W/m² | - |
| 1778012326 | 25.56° C | 40% | 1012.3 hPa | 0 mm | 0.45 m/s, 115° | 123 W/m² | - |
| 1778012023 | 25.56° C | 42% | 1012.3 hPa | 0 mm | 0.89 m/s, 141° | 71 W/m² | - |
| 1778011722 | 25.56° C | 40% | 1012.5 hPa | 0 mm | 0.45 m/s, 216° | 79 W/m² | - |
| 1778011418 | 25.56° C | 42% | 1012.5 hPa | 0 mm | 0.45 m/s, 140° | 62 W/m² | - |
| 1778011114 | 26.11° C | 41% | 1012.6 hPa | 0 mm | 1.34 m/s, 200° | 82 W/m² | - |
| 1778010811 | 26.11° C | 42% | 1012.6 hPa | 0 mm | 0 m/s | 212 W/m² | - |
* Rain latest hour (hover to see other rain measurements)
** Current wind speed in m/s (hover to see current wind gust speed)